Change the Weather History Date:

Wednesday, January 16, 2013

  Actual Average Record
Temperature  
Mean Temperature 32 °F -  
Max Temperature 34 °F 28 °F 37 °F (2015)
Min Temperature 30 °F 14 °F 14 °F (2015)
Degree Days  
Heating Degree Days 33    
Moisture  
Dew Point 28 °F    
Average Humidity 86    
Maximum Humidity 93    
Minimum Humidity 59    
Precipitation  
Precipitation 0.41 in - - ()
Sea Level Pressure  
Sea Level Pressure 29.98 in    
Wind  
Wind Speed 4 mph (NNW)    
Max Wind Speed 9 mph    
Max Gust Speed -    
Visibility 4 miles    
Events Fog , Rain , Snow    
Averages and records for this station are not official NWS values.
T = Trace of Precipitation, MM = Missing Value Source: NWS Daily Summary

Daily Weather History Graph

Daily Weather History Graph

Search for Another Location

Airport or City:

Trip Planner

Search our weather history database for the weather conditions in past years. The results will help you decide how hot, cold, wet, or windy it might be!

Date:

Astronomy

Jan. 16, 2013 Rise Set
Actual Time 7:10 AM EST 4:37 PM EST
Civil Twilight 6:39 AM EST 5:08 PM EST
Nautical Twilight 6:04 AM EST 5:43 PM EST
Astronomical Twilight 5:30 AM EST 6:16 PM EST
Moon 9:36 AM EST (1/16) 10:34 PM EST (1/16)
Length of Visible Light 10h 29m
Length of Day
9h 26m
Waxing Crescent, 28% of the Moon is Illuminated
Jan 16
Waxing Crescent
Jan 18
First Quarter
Jan 26
Full
Feb 3
Last Quarter
Feb 10
New

Hourly Weather History & Observations

Time (EST) Temp. Windchill Dew Point Humidity Pressure Visibility Wind Dir Wind Speed Gust Speed Precip Events Conditions
12:53 AM 33.1 °F 28.7 °F 23.0 °F 66% 30.23 in 10.0 mi North 4.6 mph - N/A   Overcast
1:53 AM 34.0 °F 29.8 °F 21.9 °F 61% 30.22 in 10.0 mi North 4.6 mph - N/A   Overcast
2:53 AM 34.0 °F - 21.0 °F 59% 30.21 in 10.0 mi Calm Calm - N/A   Overcast
3:53 AM 33.1 °F 30.0 °F 21.9 °F 64% 30.17 in 10.0 mi North 3.5 mph - N/A   Overcast
4:27 AM 33.8 °F 30.8 °F 23.0 °F 65% 30.16 in 9.0 mi North 3.5 mph - 0.00 in Snow Light Snow
4:53 AM 32.0 °F 27.5 °F 25.0 °F 75% 30.14 in 2.0 mi NNW 4.6 mph - 0.00 in Snow Light Snow
5:01 AM 30.2 °F - 24.8 °F 80% 30.15 in 1.5 mi Calm Calm - 0.00 in Snow Light Snow
5:21 AM 30.2 °F 25.4 °F 26.6 °F 86% 30.15 in 0.8 mi NNW 4.6 mph - 0.02 in Snow Light Snow
5:53 AM 30.0 °F 25.2 °F 27.0 °F 88% 30.14 in 0.8 mi NNW 4.6 mph - 0.06 in Snow Light Snow
6:08 AM 30.2 °F 23.4 °F 26.6 °F 86% 30.14 in 1.0 mi NNW 6.9 mph - 0.02 in Snow Light Snow
6:30 AM 30.2 °F 23.4 °F 26.6 °F 86% 30.12 in 0.8 mi North 6.9 mph - 0.05 in Snow Light Snow
6:53 AM 30.0 °F 23.2 °F 28.0 °F 92% 30.10 in 0.8 mi NNW 6.9 mph - 0.09 in Snow Light Snow
7:51 AM 30.2 °F 26.7 °F 28.4 °F 93% 30.10 in 0.5 mi North 3.5 mph - 0.07 in Fog , Snow Snow
7:53 AM 30.0 °F 26.5 °F 28.0 °F 92% 30.09 in 0.8 mi NNW 3.5 mph - 0.07 in Snow Light Snow
8:02 AM 30.2 °F 25.4 °F 28.4 °F 93% 30.09 in 0.8 mi North 4.6 mph - 0.01 in Snow Light Snow
8:09 AM 30.2 °F 25.4 °F 28.4 °F 93% 30.09 in 1.0 mi North 4.6 mph - 0.01 in Snow Light Snow
8:31 AM 30.2 °F 26.7 °F 28.4 °F 93% 30.08 in 1.0 mi North 3.5 mph - 0.02 in Snow Light Snow
8:51 AM 30.2 °F - 28.4 °F 93% 30.08 in 0.8 mi Calm Calm - 0.03 in Snow Light Snow
8:53 AM 30.9 °F - 28.0 °F 89% 30.08 in 0.8 mi Calm Calm - 0.03 in Snow Light Snow
9:28 AM 30.2 °F - 28.4 °F 93% 30.06 in 0.8 mi Calm Calm - 0.04 in Snow Light Snow
9:35 AM 30.2 °F - 28.4 °F 93% 30.05 in 1.0 mi Calm Calm - 0.04 in Snow Light Snow
9:53 AM 32.0 °F - 28.0 °F 85% 30.02 in 1.5 mi Calm Calm - 0.05 in Snow Light Snow
10:05 AM 32.0 °F 27.5 °F 28.4 °F 87% 30.00 in 2.0 mi NE 4.6 mph - 0.00 in Snow Light Snow
10:22 AM 32.0 °F 27.5 °F 28.4 °F 87% 29.99 in 3.0 mi NNE 4.6 mph - 0.00 in   Overcast
10:36 AM 33.8 °F 29.6 °F 28.4 °F 81% 29.98 in 2.5 mi North 4.6 mph - 0.01 in   Overcast
10:53 AM 33.1 °F 27.7 °F 30.0 °F 89% 29.97 in 1.8 mi NNE 5.8 mph - 0.01 in Rain Light Rain
11:53 AM 34.0 °F 28.0 °F 30.9 °F 89% 29.93 in 1.8 mi North 6.9 mph - 0.04 in   Overcast
12:53 PM 34.0 °F 28.8 °F 30.9 °F 89% 29.89 in 1.8 mi NE 5.8 mph - 0.04 in Snow Light Snow
1:53 PM 33.8 °F 27.7 °F 30.2 °F 87% 29.87 in 1.8 mi NNE 6.9 mph - N/A Snow Light Snow
2:53 PM 33.1 °F 26.1 °F 30.0 °F 89% 29.82 in 1.8 mi North 8.1 mph - 0.01 in   Overcast
3:00 PM 33.8 °F 27.0 °F 30.2 °F 87% 29.82 in 2.0 mi NNE 8.1 mph - N/A   Overcast
3:37 PM 33.8 °F 26.4 °F 30.2 °F 87% 29.85 in 1.5 mi NNW 9.2 mph - 0.00 in Snow Light Snow
3:53 PM 33.1 °F 28.7 °F 30.9 °F 92% 29.83 in 1.2 mi North 4.6 mph - 0.01 in Rain Light Rain
4:05 PM 33.8 °F 29.6 °F 30.2 °F 87% 29.84 in 2.5 mi NNW 4.6 mph - 0.00 in Rain Light Rain
4:15 PM 33.8 °F 27.7 °F 30.2 °F 87% 29.83 in 3.0 mi North 6.9 mph - 0.00 in Rain Light Rain
4:53 PM 33.1 °F 27.7 °F 30.9 °F 92% 29.83 in 6.0 mi North 5.8 mph - 0.00 in   Overcast
5:53 PM 33.1 °F 30.0 °F 30.9 °F 92% 29.83 in 10.0 mi NNW 3.5 mph - N/A   Overcast
6:53 PM 33.1 °F 28.7 °F 30.0 °F 89% 29.83 in 10.0 mi NW 4.6 mph - N/A   Overcast
7:18 PM 33.8 °F 30.8 °F 30.2 °F 87% 29.82 in 10.0 mi NW 3.5 mph - N/A   Overcast
7:53 PM 33.1 °F - 30.0 °F 89% 29.82 in 9.0 mi Calm Calm - N/A   Overcast
8:37 PM 33.8 °F - 30.2 °F 87% 29.84 in 8.0 mi Calm Calm - N/A   Overcast
8:53 PM 33.1 °F - 30.0 °F 89% 29.82 in 8.0 mi Calm Calm - N/A   Overcast
9:53 PM 33.1 °F - 30.9 °F 92% 29.82 in 5.0 mi Calm Calm - N/A   Overcast
10:31 PM 33.8 °F 30.8 °F 30.2 °F 87% 29.82 in 5.0 mi WSW 3.5 mph - N/A   Mostly Cloudy
10:53 PM 33.1 °F 28.7 °F 30.0 °F 89% 29.81 in 4.0 mi SSW 4.6 mph - N/A   Mostly Cloudy
11:00 PM 33.8 °F 29.6 °F 30.2 °F 87% 29.82 in 4.0 mi SW 4.6 mph - N/A   Mostly Cloudy
11:44 PM 32.0 °F 27.5 °F 28.4 °F 87% 29.82 in 4.0 mi SW 4.6 mph - N/A   Scattered Clouds
11:53 PM 32.0 °F 28.7 °F 28.9 °F 88% 29.82 in 4.0 mi SW 3.5 mph - N/A   Scattered Clouds